Regional Weather Roundup
Issued by NWS

Home | Current Version | Previous Version | Text Only | Print | Product List | Glossary Off
Versions: 1 2 3 4 5 6 7 8 9 10 11 12 13 14 15 16 17 18 19 20 21 22 23 24 25 26 27 28 29 30 31 32 33 34 35 36 37 38 39 40 41 42 43 44 45 46 47 48 49 50

000
ASUS43 KBIS 272110
RWRND

NORTH DAKOTA REGIONAL WEATHER ROUNDUP
NATIONAL WEATHER SERVICE BISMARCK ND
400 PM CDT MON MAR 27 2017

NOTE: "FAIR" INDICATES FEW OR NO CLOUDS BELOW 12,000 FEET WITH NO
SIGNIFICANT WEATHER AND/OR OBSTRUCTIONS TO VISIBILITY.


NDZ001>003-009>011-017-272200-
NORTHWEST NORTH DAKOTA

CITY           SKY/WX    TMP DP  RH WIND       PRES   REMARKS
WILLISTON      FAIR      59  29  31 E12       29.89F
MINOT          PTSUNNY   43  38  82 N9        29.95R
MINOT AFB      FOG       37  36  95 N12       29.94R VSB 1
$$

NDZ018>021-031>035-040>046-272200-
SOUTHWEST NORTH DAKOTA

CITY           SKY/WX    TMP DP  RH WIND       PRES   REMARKS
BISMARCK       FAIR      65  27  23 SE12      29.90F
DICKINSON      FAIR      58  25  28 SE8       29.84F
GARRISON         N/A     60  38  43 NE5       29.89F
HETTINGER ARPT SUNNY     60  27  28 SE9       29.87F
$$

NDZ004>008-012>016-024-026-027-054-272200-
NORTHEAST NORTH DAKOTA

CITY           SKY/WX    TMP DP  RH WIND       PRES   REMARKS
GRAND FORKS    CLOUDY    43  40  89 N3        30.00F
GRND FRKS AFB  CLOUDY    42  40  93 CALM      30.00F
DEVILS LAKE    CLOUDY    51  40  65 E7        29.95R
$$

NDZ022-023-025-028>030-036>039-047>053-272200-
SOUTHEAST NORTH DAKOTA

CITY           SKY/WX    TMP DP  RH WIND       PRES   REMARKS
FARGO          SUNNY     57  41  55 VRB5      29.96S
JAMESTOWN      FAIR      58  37  45 SE7       29.92S
$$





USA.gov is the U.S. government's official web portal to all federal, state and local government web resources and services.